Aeroboteco Virtual Airlines! Uma nuvem a frente.



 INFORMAÇÕES METEOROLÓGICAS
METAR FOR SBTA
ADDS - METARS form results

(1157 UTC 17 February 2019)
Data provider http://aviationweather.gov/metar/data/
 
METAR text: SBTA 171100Z VRB01KT 9999 FEW040 21/19 Q1011
Conditions at: SBTA (TAUBATE (BASE) , BR) observed 1100 UTC 17 February 2019
Temperature: 21.0°C (70°F)
Dewpoint: 19.0°C (66°F) [RH = 88%]
Pressure (altimeter): 29.85 inches Hg (1011.0 mb)
Winds: variable direction winds at 1 MPH (1 knots; 0.5 m/s)
Visibility: 6 or more miles (10+ km)
Ceiling: at least 12,000 feet AGL
Clouds: few clouds at 4000 feet AGL
Weather: no significant weather observed at this time

 MAPA DO AEROPORTO

 INFORMAÇÕES DA PISTA
Pista 8 Tamanho da pista 112 ft Largura da pista 112 ft
Elevação da pista 0 ft Ranhura da pista 0 ft Proa da pista 0
Pista 26 Tamanho da pista 112 ft Largura da pista 112 ft
Elevação da pista 0 ft Ranhura da pista 0 ft Proa da pista 0

 FREQUÊNCIAS DO AEROPORTO
Tipo GND Nome GND Frequência 121.7 MHZ
Tipo TWR Nome TWR Frequência 119.9 MHZ

 AUXÍLIOS DE NAVEGAÇÃO PRÓXIMOS AO AEROPORTO
Tipo NDB Nome Taubate Frequência 430 KHZ